Location: Alexander
(41.3564°N, 81.5960°W)
Time: 09:16:48
(UTC+00:00)

Helios 1A Rocket - Pass Details

Date: 24 January 2021
Orbit: 562 x 586 km, 98.3° (Epoch: 02 March)

Event Time Altitude Azimuth Distance (km) Brightness Sun altitude
Rises 23:35:48 0° 140° (SE) 2,800 6.2 -11.9°
Reaches altitude 10° 23:38:08 10° 129° (SE) 1,906 5.2 -12.3°
Maximum altitude 23:41:42 29° 69° (ENE) 1,093 3.7 -13.0°
Drops below altitude 10° 23:45:18 10° 9° (N) 1,919 5.4 -13.6°
Sets 23:47:40 0° 358° (N) 2,823 6.3 -14.0°
